カタログに戻る

STARLINK-34078

運用中通信VLEO
NORAD 64012·PAYLOAD·🇺🇸 United States

打ち上げ May 14, 2025 から Cape Canaveral Space Force Station

Loading…

次のパス (今後24時間)

TLE

最新Source: CelesTrak SupGP

元期: Sep 14, 2026, 22:30 UTC

1 64012C 25101U   26257.93798611 -.00014252  00000+0 -51623-3 0  2570
2 64012  43.0038   8.9128 0001468 271.9548   9.5505 15.27583954    10

AllMySatでSTARLINK-34078をリアルタイム追跡

Download on the App Store